| time (UTC) | temp F | wind direction | speed knots | gust knots | rain 1hr in | rain 24hr in | rain mn in | humidity % | barometer mb |
| 20260510014017 | 51 | 250 | 0.9 | 2.6 | 0.00 | 0.31 | 0.01 | 93 | 1012.4 |
| 20260510013016 | 51 | 236 | 0.9 | 2.6 | 0.00 | 0.31 | 0.01 | 93 | 1012.3 |
| 20260510012016 | 51 | 232 | 0.9 | 2.6 | 0.00 | 0.31 | 0.01 | 93 | 1012.5 |
| 20260510011016 | 51 | 264 | 1.7 | 2.6 | 0.01 | 0.31 | 0.01 | 92 | 1012.6 |
| 20260510010016 | 51 | 244 | 0.9 | 2.6 | 0.01 | 0.31 | 0.01 | 92 | 1012.6 |
| 20260510005036 | 51 | 238 | 0.9 | 4.3 | 0.01 | 0.31 | 0.01 | 93 | 1012.9 |
| 20260510004016 | 51 | 242 | 1.7 | 4.3 | 0.01 | 0.31 | 0.01 | 92 | 1013.0 |
| 20260510003016 | 51 | 238 | 0.9 | 4.3 | 0.02 | 0.31 | 0.01 | 92 | 1013.0 |
| 20260510002016 | 52 | 262 | 1.7 | 3.5 | 0.02 | 0.31 | 0.01 | 92 | 1013.3 |
| 20260510001016 | 52 | 233 | 1.7 | 3.5 | 0.02 | 0.30 | 0.00 | 92 | 1013.3 |
| 20260510000016 | 52 | 232 | 0.9 | 3.5 | 0.02 | 0.30 | 0.30 | 92 | 1013.1 |
| 20260509235016 | 52 | 258 | 0.9 | 4.3 | 0.02 | 0.30 | 0.30 | 91 | 1013.3 |
| 20260509234016 | 52 | 261 | 1.7 | 7.0 | 0.02 | 0.30 | 0.30 | 91 | 1013.2 |
| 20260509233036 | 52 | 262 | 2.6 | 7.0 | 0.01 | 0.29 | 0.29 | 91 | 1013.3 |
| 20260509232016 | 52 | 275 | 1.7 | 3.5 | 0.00 | 0.28 | 0.28 | 92 | 1013.3 |
| 20260509231036 | 52 | 247 | 1.7 | 4.3 | 0.00 | 0.28 | 0.28 | 92 | 1013.4 |
| 20260509230016 | 52 | 265 | 1.7 | 3.5 | 0.00 | 0.28 | 0.28 | 92 | 1013.4 |
| 20260509225056 | 52 | 97 | 1.7 | 2.6 | 0.00 | 0.28 | 0.28 | 92 | 1013.1 |
| 20260509224016 | 52 | 0.0 | 0.9 | 0.00 | 0.28 | 0.28 | 92 | 1012.9 | |
| 20260509223036 | 52 | 0.0 | 2.6 | 0.00 | 0.28 | 0.28 | 92 | 1012.9 | |
| 20260509222016 | 52 | 115 | 0.9 | 2.6 | 0.00 | 0.28 | 0.28 | 91 | 1012.8 |
| 20260509221016 | 52 | 247 | 0.9 | 2.6 | 0.02 | 0.28 | 0.28 | 91 | 1012.7 |
| 20260509220016 | 52 | 261 | 0.9 | 1.7 | 0.05 | 0.28 | 0.28 | 91 | 1012.7 |
| 20260509215016 | 52 | 270 | 0.9 | 2.6 | 0.05 | 0.28 | 0.28 | 91 | 1012.4 |
| 20260509214016 | 52 | 252 | 0.9 | 3.5 | 0.05 | 0.28 | 0.28 | 91 | 1012.2 |
| 20260509213016 | 52 | 281 | 2.6 | 9.6 | 0.05 | 0.28 | 0.28 | 90 | 1012.2 |
| 20260509212016 | 52 | 276 | 4.3 | 11.3 | 0.05 | 0.28 | 0.28 | 89 | 1012.3 |
| 20260509211016 | 53 | 277 | 5.2 | 13.9 | 0.02 | 0.26 | 0.26 | 86 | 1012.5 |
| 20260509210016 | 55 | 294 | 6.1 | 14.8 | 0.00 | 0.24 | 0.24 | 81 | 1012.3 |
| 20260509205036 | 57 | 267 | 7.8 | 13.9 | 0.00 | 0.24 | 0.24 | 76 | 1012.0 |
| 20260509204016 | 57 | 234 | 4.3 | 10.4 | 0.00 | 0.24 | 0.24 | 75 | 1011.1 |
| 20260509203036 | 57 | 240 | 5.2 | 13.0 | 0.00 | 0.24 | 0.24 | 75 | 1010.9 |
| 20260509202016 | 58 | 235 | 5.2 | 13.0 | 0.00 | 0.24 | 0.24 | 75 | 1010.6 |
| 20260509201016 | 58 | 243 | 5.2 | 12.2 | 0.00 | 0.24 | 0.24 | 75 | 1010.3 |
| 20260509200016 | 58 | 241 | 5.2 | 10.4 | 0.00 | 0.24 | 0.24 | 76 | 1010.1 |
| 20260509195016 | 58 | 228 | 5.2 | 11.3 | 0.00 | 0.24 | 0.24 | 76 | 1010.0 |
| 20260509194016 | 58 | 240 | 4.3 | 10.4 | 0.00 | 0.24 | 0.24 | 76 | 1009.8 |
| 20260509193036 | 59 | 251 | 3.5 | 8.7 | 0.00 | 0.24 | 0.24 | 76 | 1009.7 |
| 20260509192056 | 59 | 239 | 2.6 | 7.0 | 0.00 | 0.24 | 0.24 | 76 | 1009.6 |
| 20260509191016 | 60 | 235 | 2.6 | 6.1 | 0.00 | 0.24 | 0.24 | 76 | 1009.6 |
| 20260509190016 | 60 | 258 | 1.7 | 7.8 | 0.00 | 0.24 | 0.24 | 76 | 1009.6 |
| 20260509185016 | 61 | 260 | 2.6 | 6.1 | 0.00 | 0.24 | 0.24 | 76 | 1009.4 |
| 20260509184016 | 62 | 242 | 2.6 | 7.0 | 0.00 | 0.24 | 0.24 | 76 | 1009.4 |
| 20260509183016 | 62 | 245 | 2.6 | 5.2 | 0.00 | 0.24 | 0.24 | 77 | 1009.5 |
| 20260509182016 | 63 | 237 | 2.6 | 6.1 | 0.00 | 0.24 | 0.24 | 75 | 1009.6 |
| 20260509181016 | 63 | 247 | 0.9 | 3.5 | 0.00 | 0.24 | 0.24 | 77 | 1009.6 |
| 20260509180016 | 62 | 227 | 2.6 | 7.0 | 0.00 | 0.24 | 0.24 | 77 | 1009.5 |
| 20260509175016 | 62 | 243 | 2.6 | 7.0 | 0.00 | 0.24 | 0.24 | 77 | 1009.4 |
| 20260509174016 | 61 | 242 | 2.6 | 7.8 | 0.00 | 0.24 | 0.24 | 77 | 1009.4 |
| 20260509173016 | 61 | 247 | 2.6 | 7.0 | 0.00 | 0.24 | 0.24 | 79 | 1009.4 |
| 20260509172016 | 60 | 235 | 2.6 | 7.8 | 0.05 | 0.24 | 0.24 | 81 | 1009.3 |
| 20260509171016 | 59 | 244 | 2.6 | 7.0 | 0.06 | 0.24 | 0.24 | 83 | 1009.2 |
| 20260509170016 | 59 | 255 | 2.6 | 8.7 | 0.06 | 0.24 | 0.24 | 84 | 1009.2 |
| 20260509165016 | 58 | 243 | 2.6 | 10.4 | 0.06 | 0.24 | 0.24 | 86 | 1009.2 |
| 20260509164016 | 57 | 248 | 2.6 | 7.0 | 0.06 | 0.24 | 0.24 | 85 | 1009.4 |
| 20260509163016 | 58 | 256 | 2.6 | 19.1 | 0.06 | 0.24 | 0.24 | 81 | 1009.6 |
| 20260509162016 | 62 | 259 | 1.7 | 4.3 | 0.01 | 0.19 | 0.19 | 78 | 1009.7 |
| 20260509161116 | 63 | 271 | 1.7 | 3.5 | 0.00 | 0.18 | 0.18 | 73 | 1009.2 |
| 20260509160016 | 63 | 300 | 1.7 | 3.5 | 0.01 | 0.18 | 0.18 | 73 | 1009.0 |
| 20260509155016 | 63 | 281 | 0.9 | 2.6 | 0.02 | 0.18 | 0.18 | 73 | 1009.1 |
| 20260509154016 | 63 | 45 | 0.9 | 3.5 | 0.02 | 0.18 | 0.18 | 73 | 1009.1 |
| 20260509153156 | 62 | 288 | 0.9 | 2.6 | 0.02 | 0.18 | 0.18 | 75 | 1009.2 |
| 20260509152036 | 60 | 305 | 0.9 | 2.6 | 0.02 | 0.18 | 0.18 | 80 | 1009.3 |
| 20260509151036 | 59 | 295 | 0.9 | 3.5 | 0.02 | 0.18 | 0.18 | 81 | 1009.4 |
| 20260509150016 | 60 | 273 | 0.9 | 3.5 | 0.01 | 0.17 | 0.17 | 78 | 1009.7 |
| 20260509145016 | 61 | 261 | 0.9 | 3.5 | 0.00 | 0.17 | 0.17 | 76 | 1009.6 |
| 20260509144016 | 61 | 107 | 0.9 | 3.5 | 0.00 | 0.17 | 0.17 | 79 | 1009.8 |
| 20260509143016 | 60 | 55 | 1.7 | 5.2 | 0.00 | 0.17 | 0.17 | 80 | 1009.6 |
| 20260509142016 | 59 | 43 | 3.5 | 5.2 | 0.00 | 0.17 | 0.17 | 86 | 1009.4 |
| 20260509141016 | 58 | 53 | 2.6 | 5.2 | 0.00 | 0.17 | 0.17 | 91 | 1009.7 |
| 20260509140016 | 57 | 66 | 2.6 | 4.3 | 0.01 | 0.17 | 0.17 | 92 | 1009.8 |
| 20260509135016 | 56 | 72 | 2.6 | 5.2 | 0.03 | 0.17 | 0.17 | 92 | 1009.9 |
| 20260509134016 | 56 | 95 | 1.7 | 4.3 | 0.10 | 0.17 | 0.17 | 94 | 1009.9 |
| 20260509133016 | 55 | 73 | 0.9 | 2.6 | 0.12 | 0.17 | 0.17 | 93 | 1010.0 |
| 20260509132036 | 54 | 284 | 0.0 | 1.7 | 0.17 | 0.17 | 0.17 | 91 | 1010.0 |
| 20260509131016 | 54 | 284 | 1.7 | 3.5 | 0.17 | 0.17 | 0.17 | 91 | 1010.3 |
| 20260509130036 | 54 | 292 | 1.7 | 7.0 | 0.16 | 0.16 | 0.16 | 89 | 1010.5 |
| 20260509125016 | 55 | 270 | 2.6 | 7.8 | 0.13 | 0.13 | 0.13 | 86 | 1010.7 |
| 20260509124116 | 57 | 271 | 3.5 | 11.3 | 0.06 | 0.06 | 0.06 | 84 | 1010.4 |
| 20260509123016 | 59 | 341 | 4.3 | 8.7 | 0.05 | 0.05 | 0.05 | 80 | 1009.9 |
| 20260509122016 | 60 | 281 | 2.6 | 7.0 | 0.00 | 0.00 | 0.00 | 74 | 1009.9 |
| 20260509121016 | 61 | 285 | 2.6 | 6.1 | 0.00 | 0.08 | 0.00 | 73 | 1009.8 |
| 20260509120016 | 60 | 289 | 1.7 | 5.2 | 0.00 | 0.09 | 0.00 | 74 | 1009.8 |
| 20260509115016 | 60 | 304 | 3.5 | 8.7 | 0.00 | 0.09 | 0.00 | 75 | 1009.9 |
| 20260509114016 | 60 | 282 | 3.5 | 6.1 | 0.00 | 0.09 | 0.00 | 75 | 1010.0 |
| 20260509113036 | 60 | 286 | 3.5 | 7.0 | 0.00 | 0.09 | 0.00 | 73 | 1010.0 |
| 20260509112016 | 61 | 273 | 4.3 | 7.0 | 0.00 | 0.09 | 0.00 | 72 | 1010.1 |
| 20260509111056 | 62 | 261 | 3.5 | 7.0 | 0.00 | 0.09 | 0.00 | 69 | 1010.4 |
| 20260509110016 | 62 | 255 | 3.5 | 9.6 | 0.00 | 0.09 | 0.00 | 67 | 1010.3 |
| 20260509105037 | 61 | 267 | 3.5 | 6.1 | 0.00 | 0.09 | 0.00 | 68 | 1010.4 |
| 20260509104016 | 61 | 240 | 0.9 | 5.2 | 0.00 | 0.09 | 0.00 | 69 | 1010.4 |
| 20260509103036 | 61 | 249 | 2.6 | 6.1 | 0.00 | 0.10 | 0.00 | 69 | 1010.4 |
| 20260509102016 | 60 | 255 | 2.6 | 7.8 | 0.00 | 0.11 | 0.00 | 70 | 1010.3 |
| 20260509101036 | 60 | 240 | 3.5 | 8.7 | 0.00 | 0.11 | 0.00 | 70 | 1010.2 |
| 20260509100016 | 60 | 251 | 3.5 | 9.6 | 0.00 | 0.11 | 0.00 | 70 | 1010.1 |
| 20260509095017 | 60 | 235 | 4.3 | 7.8 | 0.00 | 0.11 | 0.00 | 70 | 1010.2 |
| 20260509094016 | 60 | 240 | 1.7 | 5.2 | 0.00 | 0.11 | 0.00 | 72 | 1010.3 |
| 20260509093016 | 59 | 244 | 3.5 | 8.7 | 0.00 | 0.11 | 0.00 | 75 | 1010.2 |
| 20260509092016 | 59 | 253 | 1.7 | 5.2 | 0.00 | 0.11 | 0.00 | 78 | 1010.3 |
| 20260509091016 | 58 | 254 | 1.7 | 4.3 | 0.00 | 0.11 | 0.00 | 80 | 1010.4 |
| 20260509090016 | 59 | 249 | 1.7 | 7.0 | 0.00 | 0.11 | 0.00 | 77 | 1010.5 |
| 20260509085036 | 59 | 231 | 1.7 | 7.8 | 0.00 | 0.11 | 0.00 | 74 | 1010.5 |
| 20260509084017 | 59 | 244 | 2.6 | 5.2 | 0.00 | 0.11 | 0.00 | 75 | 1010.6 |
| 20260509083016 | 59 | 266 | 1.7 | 6.1 | 0.00 | 0.11 | 0.00 | 75 | 1010.6 |
| 20260509082017 | 58 | 243 | 3.5 | 7.8 | 0.00 | 0.11 | 0.00 | 75 | 1010.5 |
| 20260509081016 | 58 | 114 | 1.7 | 6.1 | 0.00 | 0.11 | 0.00 | 76 | 1010.5 |
| 20260509080017 | 57 | 148 | 0.9 | 7.0 | 0.00 | 0.11 | 0.00 | 78 | 1010.4 |
| 20260509075017 | 57 | 106 | 0.9 | 7.0 | 0.00 | 0.11 | 0.00 | 78 | 1010.5 |
| 20260509074016 | 57 | 248 | 0.9 | 4.3 | 0.00 | 0.11 | 0.00 | 80 | 1010.7 |
| 20260509073016 | 56 | 257 | 0.9 | 1.7 | 0.00 | 0.11 | 0.00 | 80 | 1010.5 |
| 20260509072016 | 56 | 257 | 0.9 | 3.5 | 0.00 | 0.11 | 0.00 | 80 | 1010.5 |
| 20260509071017 | 56 | 228 | 0.0 | 3.5 | 0.00 | 0.11 | 0.00 | 80 | 1010.6 |
| 20260509070036 | 56 | 268 | 0.9 | 4.3 | 0.00 | 0.11 | 0.00 | 81 | 1010.7 |
| 20260509065017 | 56 | 267 | 2.6 | 5.2 | 0.00 | 0.11 | 0.00 | 81 | 1011.0 |
| 20260509064017 | 56 | 168 | 1.7 | 4.3 | 0.00 | 0.11 | 0.00 | 80 | 1010.5 |
| 20260509063036 | 56 | 244 | 2.6 | 8.7 | 0.00 | 0.11 | 0.00 | 80 | 1010.7 |
| 20260509062016 | 56 | 235 | 2.6 | 7.0 | 0.00 | 0.11 | 0.00 | 81 | 1010.7 |
| 20260509061017 | 56 | 263 | 2.6 | 6.1 | 0.00 | 0.11 | 0.00 | 81 | 1010.8 |
| 20260509060016 | 56 | 203 | 2.6 | 7.0 | 0.00 | 0.11 | 0.00 | 80 | 1010.5 |
| 20260509055016 | 56 | 120 | 2.6 | 7.8 | 0.00 | 0.11 | 0.00 | 81 | 1010.5 |
| 20260509054016 | 56 | 245 | 2.6 | 8.7 | 0.00 | 0.11 | 0.00 | 81 | 1010.6 |
| 20260509053017 | 55 | 241 | 2.6 | 7.0 | 0.00 | 0.11 | 0.00 | 81 | 1010.6 |
| 20260509052017 | 55 | 100 | 2.6 | 7.8 | 0.00 | 0.11 | 0.00 | 81 | 1010.4 |
| 20260509051016 | 56 | 125 | 5.2 | 10.4 | 0.00 | 0.11 | 0.00 | 81 | 1010.2 |
| 20260509050017 | 56 | 127 | 3.5 | 11.3 | 0.00 | 0.11 | 0.00 | 81 | 1010.1 |
| 20260509045036 | 56 | 125 | 4.3 | 10.4 | 0.00 | 0.11 | 0.00 | 81 | 1010.0 |
| 20260509044037 | 56 | 120 | 3.5 | 11.3 | 0.00 | 0.11 | 0.00 | 81 | 1009.8 |
| 20260509043016 | 56 | 126 | 3.5 | 11.3 | 0.00 | 0.11 | 0.00 | 81 | 1009.4 |
| 20260509042017 | 56 | 118 | 6.1 | 13.0 | 0.00 | 0.11 | 0.00 | 81 | 1009.6 |
| 20260509041016 | 56 | 130 | 6.1 | 13.0 | 0.00 | 0.11 | 0.00 | 81 | 1009.1 |
| 20260509040037 | 56 | 129 | 4.3 | 12.2 | 0.00 | 0.11 | 0.00 | 81 | 1009.7 |
| 20260509035036 | 56 | 132 | 4.3 | 7.8 | 0.00 | 0.11 | 0.00 | 81 | 1010.1 |
| 20260509034016 | 56 | 121 | 3.5 | 7.8 | 0.00 | 0.11 | 0.00 | 81 | 1010.7 |
| 20260509033016 | 56 | 111 | 1.7 | 6.1 | 0.00 | 0.11 | 0.00 | 81 | 1010.7 |
| 20260509032037 | 56 | 82 | 2.6 | 8.7 | 0.00 | 0.11 | 0.00 | 80 | 1010.7 |
| 20260509031016 | 56 | 112 | 1.7 | 6.1 | 0.00 | 0.11 | 0.00 | 81 | 1010.6 |
| 20260509030017 | 56 | 226 | 2.6 | 7.0 | 0.00 | 0.11 | 0.00 | 81 | 1010.6 |
| 20260509025017 | 56 | 102 | 2.6 | 7.0 | 0.00 | 0.11 | 0.00 | 80 | 1010.4 |
| 20260509024017 | 56 | 110 | 3.5 | 8.7 | 0.00 | 0.11 | 0.00 | 80 | 1010.2 |
| 20260509023017 | 56 | 105 | 3.5 | 7.8 | 0.00 | 0.11 | 0.00 | 80 | 1010.1 |
| 20260509022037 | 56 | 221 | 1.7 | 5.2 | 0.00 | 0.11 | 0.00 | 81 | 1010.3 |
| 20260509021056 | 56 | 105 | 0.9 | 2.6 | 0.00 | 0.11 | 0.00 | 81 | 1010.3 |
| 20260509020016 | 56 | 107 | 1.7 | 7.8 | 0.00 | 0.11 | 0.00 | 80 | 1010.3 |
| 20260509015017 | 56 | 119 | 1.7 | 6.1 | 0.00 | 0.11 | 0.00 | 81 | 1010.4 |